HASTNG-WX Weather Reports


Display with metric or nautical units.
time (UTC)temp
F
wind
direction
speed
MPH
gust
MPH
rain 1hr
in
rain 24hr
in
rain mn
in
humidity
%
barometer
mb
20260502233042 46 266 8.0 0.0 0.00 0.00 0.00 43 987.1
20260502231530 46 267 9.0 0.0 0.00 0.00 0.00 43 987.1
20260502230056 46 271 10.0 0.0 0.00 0.00 0.00 43 987.1
20260502224530 47 273 11.0 0.0 0.00 0.00 0.00 40 987.5
20260502223048 47 270 11.0 0.0 0.00 0.00 0.00 42 988.1
20260502221530 47 270 11.0 0.0 0.00 0.00 0.00 42 988.1
20260502220055 47 270 11.0 0.0 0.00 0.00 0.00 42 988.1
20260502214530 47 271 11.0 0.0 0.00 0.00 0.00 44 988.3
20260502213048 47 271 10.0 0.0 0.00 0.00 0.00 39 987.9
20260502211530 47 266 10.0 0.0 0.00 0.00 0.00 39 987.8
20260502210058 47 264 10.0 0.0 0.00 0.00 0.00 39 987.8
20260502204530 47 265 10.0 0.0 0.00 0.00 0.00 42 988.2
20260502203048 47 267 11.0 0.0 0.00 0.00 0.00 39 988.8
20260502201530 47 269 11.0 0.0 0.00 0.00 0.00 39 988.8
20260502200055 47 270 11.0 0.0 0.00 0.00 0.00 39 988.8
20260502194530 47 271 11.0 0.0 0.00 0.00 0.00 43 988.9
20260502193043 47 274 11.0 0.0 0.00 0.00 0.00 43 988.9
20260502191530 47 276 11.0 0.0 0.00 0.00 0.00 43 989.0
20260502190055 47 276 12.0 0.0 0.00 0.00 0.00 43 989.0
20260502184529 47 278 11.0 0.0 0.00 0.00 0.00 45 988.8
20260502183049 46 281 10.0 0.0 0.00 0.00 0.00 42 988.9
20260502181529 47 285 9.0 0.0 0.00 0.00 0.00 42 988.9
20260502163049 46 275 8.0 0.0 0.00 0.00 0.00 40 988.6
20260502161529 45 279 8.0 0.0 0.00 0.00 0.00 40 988.6
20260502151530 43 288 6.0 0.0 0.00 0.00 0.00 48 988.7
20260502123047 35 319 5.0 0.0 0.00 0.00 0.00 80 988.9
20260502121529 34 322 5.0 0.0 0.00 0.00 0.00 80 988.9
20260502114530 33 311 4.0 0.0 0.00 0.00 0.00 85 988.6
20260502113051 32 294 2.0 0.0 0.00 0.00 0.00 84 988.7
20260502111530 31 275 2.0 0.0 0.00 0.00 0.00 84 988.7
20260502110058 31 275 2.0 0.0 0.00 0.00 0.00 84 988.7
20260502104529 31 270 2.0 0.0 0.00 0.00 0.00 82 988.4
20260502103048 31 265 2.0 0.0 0.00 0.00 0.00 87 988.8
20260502101530 31 252 2.0 0.0 0.00 0.00 0.00 87 988.8
20260502091529 31 255 2.0 0.0 0.00 0.00 0.00 87 988.3
20260502071530 32 301 3.0 0.0 0.00 0.00 0.00 81 987.5
20260502070055 32 311 4.0 0.0 0.00 0.00 0.00 81 987.5
20260502064530 32 306 3.0 0.0 0.00 0.00 0.00 77 988.5
20260502063049 32 301 3.0 0.0 0.00 0.00 0.00 79 988.4
20260502061529 33 298 4.0 0.0 0.00 0.00 0.00 79 988.4
20260502060105 33 300 4.0 0.0 0.00 0.00 0.00 79 988.4
20260502054530 33 304 4.0 0.0 0.00 0.00 0.00 72 987.5
20260502053048 33 304 5.0 0.0 0.00 0.00 0.00 77 988.1
20260502051529 33 300 4.0 0.0 0.00 0.00 0.00 77 988.1
20260502050058 34 306 4.0 0.0 0.00 0.00 0.00 77 988.1
20260502044530 34 311 4.0 0.0 0.00 0.00 0.00 68 987.6
20260502043047 34 337 5.0 0.0 0.00 0.00 0.00 73 987.8
20260502041529 34 333 6.0 0.0 0.00 0.00 0.00 73 987.8
20260502040057 35 313 5.0 0.0 0.00 0.00 0.00 73 987.8
20260502034529 35 298 3.0 0.0 0.00 0.00 0.00 63 987.2
20260502033049 36 313 4.0 0.0 0.00 0.00 0.00 70 986.8
20260502031529 36 319 4.0 0.0 0.00 0.00 0.00 70 986.8
20260502030056 36 309 4.0 0.0 0.00 0.00 0.00 70 986.8
20260502024529 36 298 4.0 0.0 0.00 0.00 0.00 62 986.2
20260502023046 37 310 7.0 0.0 0.00 0.00 0.00 64 987.2
20260502021529 36 298 8.0 0.0 0.00 0.00 0.00 64 987.1
20260502020053 37 291 8.0 0.0 0.00 0.00 0.00 64 987.1
20260502014528 37 290 8.0 0.0 0.00 0.00 0.00 61 987.3
20260502013045 37 289 8.0 0.0 0.00 0.00 0.00 61 987.3
20260502011528 37 282 8.0 0.0 0.00 0.00 0.00 61 987.3
20260502010050 38 287 9.0 0.0 0.00 0.00 0.00 61 987.3
20260502004528 39 289 9.0 0.0 0.00 0.00 0.00 56 987.8
20260502003046 40 292 9.0 0.0 0.00 0.00 0.00 57 988.2
20260502001528 41 291 9.0 0.0 0.00 0.00 0.00 57 988.2
20260502000101 42 292 10.0 0.0 0.00 0.00 0.00 57 988.2
20260501234529 42 286 9.0 0.0 0.00 0.00 0.00 57 986.5